Ellensburg, WA
on Thursday, February 21, 2013

Thursday
Previous Day Next Day
Daily Summary
 ActualAverage (KYKM)Record (KYKM)
Temperature
Mean Temperature °F 37°F  
Max Temperature 48°F 48°F 68°F (1988)
Min Temperature 21°F 26°F 9°F (1993)
Degree Days
Heating Degree Days 30 28  
Month to date heating degree days 622  
Since 1 July heating degree days 4340  
Cooling Degree Days 0 0  
Month to date cooling degree days 0  
Year to date cooling degree days 0  
Moisture
Dew Point 26°F   
Average Humidity 73    
Maximum Humidity 85    
Minimum Humidity 46    
Precipitation
Precipitation 0.00 in 0.02 in 0.42 in (1956)
Month to date precipitation 0.59  
Year to date precipitation 1.73  
Snow
Snow 0.00 in 0.10 in 4.60 in (1956)
Month to date snowfall 2.1  
Year to date snowfall 7.4  
Since 1 July snowfall 20.4  
Snow Depth in   
Wind
Wind Speed 5 mph   
Max Wind Speed 14 mph   
Max Gust Speed mph   
Visibility 10 miles   
Events Rain   

Key: T is trace of precipitation, MM is missing value
Source: NWS Daily Summary
Time(PST)TemperatureDew PointHumidity Pressure Visibility Wind DirectionWind SpeedGust SpeedPrecipitationEvents Conditions
12:53 AM 26.1°F 19.0°F 75% 30.00 in 10.0 miles SE 3.5 mph - N/A   Clear
1:53 AM 25.0°F 19.9°F 81% 30.01 in 10.0 miles ENE 5.8 mph - N/A   Clear
2:53 AM 24.1°F 19.0°F 81% 30.02 in 10.0 miles NE 5.8 mph - N/A   Clear
3:53 AM 24.1°F 18.0°F 77% 30.02 in 10.0 miles Calm Calm - N/A   Clear
4:53 AM 21.0°F 16.0°F 81% 30.01 in 10.0 miles East 4.6 mph - N/A   Clear
5:53 AM 26.1°F 21.0°F 81% 30.02 in 10.0 miles ENE 4.6 mph - N/A   Overcast
6:53 AM 28.0°F 23.0°F 81% 30.02 in 10.0 miles SW 3.5 mph - N/A   Overcast
7:53 AM 28.0°F 23.0°F 81% 30.03 in 10.0 miles Calm Calm - N/A   Clear
8:53 AM 30.0°F 24.1°F 79% 30.04 in 10.0 miles Calm Calm - N/A   Clear
9:53 AM 33.1°F 26.1°F 75% 30.03 in 10.0 miles Calm Calm - N/A   Partly Cloudy
10:53 AM 39.0°F 27.0°F 62% 30.03 in 10.0 miles Variable 3.5 mph - N/A   Overcast
11:53 AM 45.0°F 28.0°F 52% 30.02 in 10.0 miles NW 11.5 mph - N/A   Mostly Cloudy
12:53 PM 48.0°F 28.0°F 46% 29.99 in 10.0 miles Variable 6.9 mph - N/A   Overcast
1:53 PM 46.0°F 26.1°F 46% 29.99 in 10.0 miles WNW 10.4 mph - N/A   Overcast
2:53 PM 45.0°F 28.0°F 52% 29.99 in 10.0 miles NW 13.8 mph - N/A   Overcast
3:53 PM 41.0°F 30.0°F 65% 30.00 in 10.0 miles NW 12.7 mph - N/A   Overcast
4:53 PM 39.0°F 30.9°F 73% 30.01 in 10.0 miles NW 11.5 mph - 0.00 in Rain Light Rain
5:53 PM 35.1°F 30.0°F 82% 30.01 in 10.0 miles NW 5.8 mph - 0.00 in   Overcast
6:53 PM 35.1°F 30.9°F 85% 30.01 in 10.0 miles WSW 3.5 mph - 0.00 in   Overcast
7:53 PM 36.0°F 30.9°F 82% 30.01 in 10.0 miles West 3.5 mph - 0.00 in Rain Light Rain
8:53 PM 37.0°F 30.9°F 79% 30.01 in 10.0 miles NW 6.9 mph - 0.00 in   Mostly Cloudy
9:53 PM 34.0°F 30.0°F 85% 30.02 in 8.0 miles West 4.6 mph - N/A   Mostly Cloudy
11:53 PM 36.0°F 30.0°F 79% 29.99 in 10.0 miles NW 8.1 mph - N/A   Clear
Moon Phase
Feb. 21 Feb. 25 Mar. 04 Mar. 11 Mar. 19
Sunrise:06:55 AM (PST) Moon Rise:01:45 PM (PST)
Sunset:05:36 PM (PST) Moon Set:04:14 AM (PST)

Copyright © 2014 The Weather Underground, Inc.